Regional Weather Roundup
Issued by NWS

Home | Current Version | Previous Version | Text Only | Print | Product List | Glossary Off
Versions: 1 2 3 4 5 6 7 8 9 10 11 12 13 14 15 16 17 18 19 20 21 22 23 24 25 26 27 28 29 30 31 32 33 34 35 36 37 38 39 40 41 42 43 44 45 46 47 48 49 50

000
ASUS44 KMEG 270500
RWRTN
TENNESSEE HOURLY STATE WEATHER ROUNDUP
NATIONAL WEATHER SERVICE MEMPHIS TN
1200 AM CDT FRI MAR 27 2015

TNZ002-004-019-021-049-052-054-088>092-270600-
WEST TENNESSEE

CITY           SKY/WX    TMP DP  RH WIND       PRES   REMARKS
MEMPHIS INTL   CLEAR     43  35  73 NE5       30.07R
NWS MEMPHIS      N/A     39 N/A N/A MISG        N/A
JACKSON        CLEAR     38  34  85 N3        30.06R
DYERSBURG      CLEAR     37  23  56 CALM      30.07S
UNION CITY     CLEAR     34  34 100 CALM      30.04S
PARIS          CLEAR     32  30  93 CALM      30.03F
LEXINGTON      CLEAR     37  34  87 N7        30.02F WCI  32
SAVANNAH       CLOUDY    43  39  87 N12       30.02S
$$

TNZ008-025-027-028-033-062-065-066-270600-
NORTH MIDDLE TENNESSEE

CITY           SKY/WX    TMP DP  RH WIND       PRES   REMARKS
NASHVILLE      CLOUDY    42  36  79 N10       30.01R
CLARKSVILLE    CLEAR     37  34  89 NW6       30.03S WCI  32
COOKEVILLE     CLOUDY    41  39  93 NE5       29.93F
CROSSVILLE     LGT RAIN  39  36  89 NE10      29.92F WCI  32
$$

TNZ061-075-076-078-094-096-097-270600-
SOUTH MIDDLE TENNESSEE

CITY           SKY/WX    TMP DP  RH WIND       PRES   REMARKS
FAYETTEVILLE   MOCLDY    39  39 100 N13       29.91F WCI  32
TULLAHOMA      CLOUDY    39  37  93 N9        29.95R WCI  33
WINCHESTER     CLOUDY    43  39  87 N12       29.94R
COLUMBIA       CLOUDY    41  41 100 N8        29.98S
SHELBYVILLE    CLOUDY    43  43 100 N9        29.98R
$$

TNZ017-018-042-046-047-270600-
NORTHEAST TENNESSEE

CITY           SKY/WX    TMP DP  RH WIND       PRES   REMARKS
TRI CITIES     LGT RAIN  45  41  86 NW9       29.87F
ELIZABETHTON   LGT RAIN  45  39  81 NW6       29.86S
$$

TNZ012-013-036-069-073-074-270600-
CENTRAL EAST TENNESSEE

CITY           SKY/WX    TMP DP  RH WIND       PRES   REMARKS
KNOXVILLE      LGT RAIN  45  42  89 N14       29.91S
OAK RIDGE      RAIN      46  43  89 VRB5      29.93F
GATLINBURG     CLOUDY    45  43  93 VRB3      29.90F
$$

TNZ083-085-099-270600-
SOUTHEAST TENNESSEE

CITY           SKY/WX    TMP DP  RH WIND       PRES   REMARKS
CHATTANOOGA    CLOUDY    49  41  74 N14G22    29.88F
$$

SKY/WX REPORTED AS FAIR MEANS FEW OR NO CLOUDS BELOW
12 THOUSAND FEET.



USA.gov is the U.S. government's official web portal to all federal, state and local government web resources and services.